Tracking 22881 objects as of 19-Apr-2021
HD Live streaming from Space Station
objects crossing your sky now

STARLINK-1516

Track STARLINK-1516 now!
10-day predictions
STARLINK-1516 is classified as:


NORAD ID: 45749
Int'l Code: 2020-038V
Perigee: 298.5 km
Apogee: 310.6 km
Inclination: 53.0 °
Period: 90.5 minutes
Semi major axis: 6675 km
RCS: Unknown
Launch date: June 13, 2020
Source: United States (US)
Launch site: AIR FORCE EASTERN TEST RANGE (AFETR)
aabbcc
Your satellite tracking list
Your tracking list is empty




NASA's NSSDC Master Catalog

Two Line Element Set (TLE):
1 45749U 20038V   21109.44543218  .00148067  19273-4  44997-3 0  9994
2 45749  52.9785 181.9602 0009029  16.8245 343.3077 15.91735509 50096
Source of the keplerian elements: AFSPC